Weather History for KATS - December, 2013

Change the Weather History Date:

Wednesday, December 11, 2013

  Actual Average Record
Temperature  
Mean Temperature 33 °F -  
Max Temperature 42 °F 57 °F 80 °F (1975)
Min Temperature 24 °F 23 °F 3 °F (1978)
Degree Days  
Heating Degree Days 32    
Moisture  
Dew Point 22 °F    
Average Humidity 68    
Maximum Humidity 100    
Minimum Humidity 36    
Precipitation  
Precipitation 0.00 in - - ()
Sea Level Pressure  
Sea Level Pressure 30.42 in    
Wind  
Wind Speed 9 mph (NW)    
Max Wind Speed 20 mph    
Max Gust Speed 26 mph    
Visibility 10 miles    
Events      
Averages and records for this station are not official NWS values.
T = Trace of Precipitation, MM = Missing Value Source: NWS Daily Summary

Daily Weather History Graph

Daily Weather History Graph

Search for Another Location

Airport or City:

Trip Planner

Search our weather history database for the weather conditions in past years. The results will help you decide how hot, cold, wet, or windy it might be!

Date:

Astronomy

Dec. 11, 2013 Rise Set
Actual Time 6:50 AM MST 4:52 PM MST
Civil Twilight 6:23 AM MST 5:19 PM MST
Nautical Twilight 5:52 AM MST 5:50 PM MST
Astronomical Twilight 5:22 AM MST 6:20 PM MST
Moon 1:14 PM MST (12/11) 1:28 AM MST (12/11)
Length of Visible Light 10h 56m
Length of Day
10h 01m
Waxing Gibbous, 72% of the Moon is Illuminated
Dec 11
Waxing Gibbous
Dec 17
Full
Dec 25
Last Quarter
Jan 1
New
Jan 7
First Quarter

Hourly Weather History & Observations

Time (MST) Temp. Windchill Dew Point Humidity Pressure Visibility Wind Dir Wind Speed Gust Speed Precip Events Conditions
12:15 AM 26.6 °F 22.6 °F 26.6 °F 100% 30.19 in 10.0 mi WNW 3.5 mph - N/A   Clear
12:35 AM 26.6 °F 22.6 °F 24.8 °F 93% 30.19 in 10.0 mi West 3.5 mph - N/A   Clear
12:55 AM 24.8 °F 19.1 °F 24.8 °F 100% 30.19 in 10.0 mi WNW 4.6 mph - N/A   Clear
1:15 AM 24.8 °F 16.9 °F 24.8 °F 100% 30.20 in 10.0 mi NNW 6.9 mph - N/A   Clear
1:35 AM 24.8 °F 16.1 °F 24.8 °F 100% 30.21 in 10.0 mi North 8.1 mph - N/A   Clear
1:55 AM 24.8 °F 15.3 °F 24.8 °F 100% 30.21 in 10.0 mi North 9.2 mph - N/A   Clear
2:15 AM 24.8 °F 16.9 °F 23.0 °F 93% 30.22 in 10.0 mi NNW 6.9 mph - N/A   Clear
2:35 AM 24.8 °F 16.9 °F 24.8 °F 100% 30.23 in 10.0 mi NNW 6.9 mph - N/A   Clear
2:55 AM 26.6 °F 17.5 °F 24.8 °F 93% 30.24 in 10.0 mi NNW 9.2 mph - N/A   Clear
3:15 AM 24.8 °F 15.3 °F 24.8 °F 100% 30.24 in 10.0 mi NW 9.2 mph - N/A   Clear
3:35 AM 26.6 °F 16.8 °F 24.8 °F 93% 30.26 in 10.0 mi NW 10.4 mph - N/A   Clear
3:55 AM 26.6 °F 16.2 °F 24.8 °F 93% 30.27 in 10.0 mi NW 11.5 mph - N/A   Clear
4:15 AM 26.6 °F 17.5 °F 24.8 °F 93% 30.27 in 10.0 mi NW 9.2 mph - N/A   Clear
4:35 AM 26.6 °F 17.5 °F 24.8 °F 93% 30.28 in 10.0 mi WNW 9.2 mph - N/A   Clear
4:55 AM 26.6 °F 18.2 °F 24.8 °F 93% 30.30 in 10.0 mi NNW 8.1 mph - N/A   Clear
5:15 AM 28.4 °F 19.1 °F 26.6 °F 93% 30.31 in 10.0 mi NNW 10.4 mph - N/A   Clear
5:35 AM 28.4 °F 18.5 °F 26.6 °F 93% 30.32 in 10.0 mi NW 11.5 mph - N/A   Clear
5:55 AM 30.2 °F 19.8 °F 24.8 °F 80% 30.35 in 10.0 mi NW 13.8 mph - N/A   Clear
6:15 AM 30.2 °F 19.3 °F 19.4 °F 64% 30.36 in 10.0 mi NNW 15.0 mph 20.7 mph N/A   Clear
6:35 AM 28.4 °F 16.6 °F 19.4 °F 69% 30.38 in 10.0 mi North 16.1 mph - N/A   Clear
6:55 AM 28.4 °F 17.0 °F 19.4 °F 69% 30.40 in 10.0 mi North 15.0 mph - N/A   Clear
7:15 AM 28.4 °F 17.5 °F 19.4 °F 69% 30.42 in 10.0 mi NNW 13.8 mph - N/A   Clear
7:35 AM 28.4 °F 17.5 °F 19.4 °F 69% 30.44 in 10.0 mi NNW 13.8 mph - N/A   Clear
7:55 AM 28.4 °F 16.6 °F 19.4 °F 69% 30.45 in 10.0 mi NNW 16.1 mph - N/A   Clear
8:15 AM 32.0 °F 20.8 °F 19.4 °F 60% 30.47 in 10.0 mi NNW 17.3 mph - N/A   Clear
8:35 AM 32.0 °F 21.6 °F 19.4 °F 60% 30.48 in 10.0 mi NNW 15.0 mph 20.7 mph N/A   Clear
8:55 AM 32.0 °F 20.5 °F 19.4 °F 60% 30.49 in 10.0 mi NNW 18.4 mph 23.0 mph N/A   Clear
9:15 AM 32.0 °F 20.5 °F 19.4 °F 60% 30.50 in 10.0 mi NNW 18.4 mph 24.2 mph N/A   Clear
9:35 AM 35.6 °F 24.8 °F 19.4 °F 52% 30.50 in 10.0 mi North 19.6 mph 26.5 mph N/A   Clear
9:55 AM 35.6 °F 25.2 °F 17.6 °F 48% 30.51 in 10.0 mi North 18.4 mph 21.9 mph N/A   Clear
10:15 AM 35.6 °F 26.2 °F 17.6 °F 48% 30.51 in 10.0 mi North 15.0 mph - N/A   Clear
10:35 AM 37.4 °F 28.5 °F 17.6 °F 45% 30.51 in 10.0 mi North 15.0 mph - N/A   Clear
10:55 AM 37.4 °F 28.2 °F 17.6 °F 45% 30.50 in 10.0 mi North 16.1 mph 23.0 mph N/A   Clear
11:15 AM 39.2 °F 31.6 °F 17.6 °F 42% 30.49 in 10.0 mi North 12.7 mph - N/A   Clear
11:35 AM 39.2 °F 32.0 °F 17.6 °F 42% 30.48 in 10.0 mi North 11.5 mph 17.3 mph N/A   Clear
11:55 AM 39.2 °F 32.5 °F 17.6 °F 42% 30.47 in 10.0 mi North 10.4 mph - N/A   Clear
12:15 PM 41.0 °F 34.7 °F 17.6 °F 39% 30.47 in 10.0 mi North 10.4 mph - N/A   Clear
12:35 PM 41.0 °F 36.4 °F 17.6 °F 39% 30.46 in 10.0 mi North 6.9 mph - N/A   Clear
12:55 PM 41.0 °F 38.0 °F 17.6 °F 39% 30.45 in 10.0 mi NNW 4.6 mph - N/A   Clear
1:15 PM 41.0 °F 34.3 °F 17.6 °F 39% 30.45 in 10.0 mi North 11.5 mph - N/A   Clear
1:35 PM 41.0 °F 35.2 °F 17.6 °F 39% 30.44 in 10.0 mi North 9.2 mph - N/A   Clear
1:55 PM 41.0 °F 36.4 °F 17.6 °F 39% 30.44 in 10.0 mi NNE 6.9 mph - N/A   Clear
2:15 PM 42.8 °F 39.3 °F 17.6 °F 36% 30.44 in 10.0 mi North 5.8 mph - N/A   Clear
2:35 PM 42.8 °F 38.6 °F 17.6 °F 36% 30.45 in 10.0 mi North 6.9 mph - N/A   Clear
2:55 PM 42.8 °F 40.1 °F 17.6 °F 36% 30.45 in 10.0 mi North 4.6 mph - N/A   Clear
3:15 PM 42.8 °F 39.3 °F 19.4 °F 39% 30.45 in 10.0 mi NNW 5.8 mph - N/A   Clear
3:35 PM 42.8 °F 38.6 °F 17.6 °F 36% 30.45 in 10.0 mi NNW 6.9 mph - N/A   Clear
3:55 PM 42.8 °F 40.1 °F 19.4 °F 39% 30.46 in 10.0 mi NNW 4.6 mph - N/A   Clear
4:15 PM 41.0 °F 37.1 °F 19.4 °F 42% 30.47 in 10.0 mi WNW 5.8 mph - N/A   Clear
4:35 PM 41.0 °F 37.1 °F 23.0 °F 49% 30.48 in 10.0 mi WNW 5.8 mph - N/A   Clear
4:55 PM 39.2 °F 33.6 °F 23.0 °F 52% 30.48 in 10.0 mi WNW 8.1 mph - N/A   Clear
5:15 PM 35.6 °F 28.6 °F 23.0 °F 60% 30.49 in 10.0 mi WNW 9.2 mph - N/A   Clear
5:35 PM 33.8 °F 26.4 °F 23.0 °F 65% 30.49 in 10.0 mi WNW 9.2 mph - N/A   Clear
5:55 PM 32.0 °F 24.8 °F 23.0 °F 69% 30.50 in 10.0 mi West 8.1 mph - N/A   Clear
6:15 PM 32.0 °F 25.6 °F 23.0 °F 69% 30.50 in 10.0 mi West 6.9 mph - N/A   Clear
6:35 PM 32.0 °F 25.6 °F 23.0 °F 69% 30.51 in 10.0 mi West 6.9 mph - N/A   Clear
6:55 PM 32.0 °F 25.6 °F 23.0 °F 69% 30.51 in 10.0 mi West 6.9 mph - N/A   Clear
7:15 PM 32.0 °F - 23.0 °F 69% 30.52 in 10.0 mi Calm Calm - N/A   Clear
7:35 PM 32.0 °F - 23.0 °F 69% 30.52 in 10.0 mi Calm Calm - N/A   Clear
7:55 PM 30.2 °F - 23.0 °F 75% 30.51 in 10.0 mi Calm Calm - N/A   Clear
8:15 PM 32.0 °F 28.7 °F 21.2 °F 64% 30.52 in 10.0 mi SW 3.5 mph - N/A   Clear
8:35 PM 28.4 °F 22.2 °F 23.0 °F 80% 30.52 in 10.0 mi SSW 5.8 mph - N/A   Clear
8:55 PM 30.2 °F 21.3 °F 23.0 °F 75% 30.52 in 10.0 mi SW 10.4 mph - N/A   Clear
9:15 PM 30.2 °F 21.3 °F 23.0 °F 75% 30.52 in 10.0 mi SW 10.4 mph - N/A   Clear
9:35 PM 30.2 °F 21.9 °F 23.0 °F 75% 30.52 in 10.0 mi SW 9.2 mph - N/A   Clear
9:55 PM 30.2 °F 21.9 °F 24.8 °F 80% 30.51 in 10.0 mi SW 9.2 mph - N/A   Clear
10:15 PM 30.2 °F 21.9 °F 24.8 °F 80% 30.51 in 10.0 mi WSW 9.2 mph - N/A   Clear
10:35 PM 28.4 °F 19.7 °F 24.8 °F 86% 30.51 in 10.0 mi WSW 9.2 mph - N/A   Clear
10:55 PM 28.4 °F 20.4 °F 24.8 °F 86% 30.51 in 10.0 mi WSW 8.1 mph - N/A   Clear
11:15 PM 28.4 °F 22.2 °F 24.8 °F 86% 30.51 in 10.0 mi WSW 5.8 mph - N/A   Clear
11:35 PM 28.4 °F - 24.8 °F 86% 30.50 in 10.0 mi Calm Calm - N/A   Clear
11:55 PM 28.4 °F - 24.8 °F 86% 30.50 in 10.0 mi Calm Calm - N/A   Clear